Theta_e
321 321 321 321 322 321 321 321 321 321 320 320 320 320 320 320 320 320 321 321 321 321 321 322 324 325 320 314 321 339 356 352 332 327 327 329 329 327 327 330 333 326 329 332 334 332 324
321 320 321 321 321 320 320 320 321 320 318 318 318 318 319 319 319 319 319 320 320 320 321 322 324 325 320 310 328 341 334 329 329 328 329 330 335 336 330 327 330 329 330 330 331 328 327
320 320 320 320 320 320 319 320 319 318 318 317 317 317 318 318 318 318 319 319 318 320 320 322 324 324 313 311 325 338 333 329 329 331 330 335 343 336 335 328 335 331 325 328 327 328 325
319 318 318 319 320 319 318 318 318 317 317 317 317 317 317 317 317 317 318 318 318 319 321 324 328 321 310 323 326 328 333 335 334 334 334 342 344 336 333 335 332 327 326 316 325 329 329
317 317 317 317 317 317 317 317 317 316 316 316 316 316 316 317 317 317 316 317 318 321 323 326 318 313 310 331 324 327 329 334 332 334 335 344 339 331 330 325 320 321 314 316 320 328 327
317 317 317 317 316 316 316 316 316 316 316 315 315 315 315 316 316 316 315 317 320 323 323 326 321 309 317 321 324 327 329 337 330 331 332 335 329 323 321 318 311 313 314 317 318 323 323
317 317 316 316 316 316 315 315 315 315 315 315 315 315 314 315 315 315 312 311 311 310 311 312 312 313 319 324 328 325 332 333 330 329 322 329 319 315 320 321 322 319 317 315 320 325 322
318 318 317 316 315 315 314 314 314 314 314 314 314 314 314 315 314 314 310 307 310 312 305 313 315 317 319 321 317 324 335 326 325 322 327 323 317 325 327 325 321 320 317 315 321 326 322
318 318 318 318 315 314 314 314 313 314 314 314 313 313 314 314 313 311 310 311 316 315 304 310 314 315 317 318 316 323 330 327 325 324 324 317 322 329 326 322 320 317 316 316 316 321 324
318 318 318 318 317 314 314 313 313 313 313 313 313 313 313 312 309 310 311 318 318 318 300 306 307 312 317 319 314 327 332 329 325 321 323 320 327 323 322 321 319 314 322 322 320 315 310
318 317 318 317 317 315 314 313 313 313 313 313 313 314 313 311 306 308 314 317 318 313 291 312 309 318 316 315 315 318 325 329 322 321 320 319 320 318 315 319 324 319 325 321 319 315 309
317 317 317 317 317 316 313 313 313 313 313 313 313 313 312 312 309 313 318 319 313 299 294 308 311 309 310 313 315 318 320 325 328 323 323 319 324 322 321 326 325 325 321 319 318 313 303
317 317 316 316 316 316 315 313 313 314 314 313 312 311 310 311 307 314 312 311 297 294 309 306 306 309 309 309 311 313 314 315 313 308 310 315 316 321 323 320 324 323 314 305 302 301 299
317 317 316 315 315 315 315 315 315 314 314 313 311 310 310 310 311 310 310 303 293 303 303 309 309 308 305 308 309 311 311 311 317 315 310 309 307 318 325 319 317 317 314 303 299 301 303
316 316 316 316 315 315 315 315 314 314 313 312 310 312 314 314 313 312 306 296 297 303 309 308 308 305 303 307 309 309 309 310 315 316 309 306 308 323 324 323 319 315 310 316 303 305 303
315 315 315 315 314 314 314 314 314 314 312 311 306 310 312 321 317 311 303 296 301 307 308 307 301 306 303 305 305 307 308 313 315 318 319 314 306 319 322 322 322 317 320 307 307 300 298
313 315 315 314 314 314 314 314 313 312 311 310 309 311 319 320 316 305 298 300 303 308 308 305 304 304 305 305 306 306 308 314 317 318 319 316 311 312 318 315 313 313 311 309 308 305 298
315 315 314 312 313 314 314 313 313 311 310 309 308 306 318 319 304 304 300 303 304 306 309 307 308 306 304 306 305 305 307 312 319 319 314 317 310 306 311 320 322 319 314 313 301 301 304
315 315 315 314 314 313 313 313 312 311 310 305 303 310 321 317 301 302 305 305 306 305 306 306 306 308 307 304 301 307 309 315 319 318 316 318 312 307 306 314 318 315 316 315 310 306 302
315 315 315 314 314 314 314 313 312 311 311 307 306 307 314 315 312 307 305 304 304 309 307 308 307 306 304 302 304 305 307 314 315 314 327 318 308 310 305 311 315 312 314 315 309 303 303
315 315 315 314 314 314 314 313 313 312 311 308 311 308 310 305 307 308 307 305 304 305 309 309 305 304 302 299 303 303 308 309 313 317 314 309 302 305 305 311 314 315 314 314 310 307 302
314 314 314 314 314 314 313 313 312 311 310 310 306 303 306 303 308 307 306 304 305 307 308 307 305 307 304 300 304 303 306 307 307 308 304 308 302 304 302 307 306 312 314 314 311 311 307
313 313 313 314 314 313 312 313 312 311 310 308 310 312 307 303 304 303 304 307 309 310 310 311 310 308 306 307 310 310 310 309 306 303 306 305 302 301 295 304 305 300 306 309 308 308 308
314 314 314 312 312 312 313 312 312 311 310 308 309 310 306 299 303 304 306 308 308 310 310 313 313 311 315 317 316 313 312 308 309 308 307 305 304 303 298 299 293 304 311 313 312 313 312
314 313 313 313 313 313 313 313 312 312 311 308 311 309 306 298 303 303 305 305 307 309 310 312 314 316 315 313 306 304 303 304 307 309 308 308 307 301 298 298 302 308 311 310 308 308 314
313 313 312 312 312 313 313 313 313 311 311 309 309 315 311 302 302 305 301 306 304 304 306 311 315 317 315 309 305 299 297 301 301 303 306 306 305 305 301 297 296 306 313 316 314 304 318
312 312 312 312 312 313 312 313 313 313 311 309 309 314 311 304 307 306 302 302 307 306 303 308 308 313 313 306 302 299 299 304 298 299 299 299 300 298 299 297 302 315 315 315 300 305 320
312 312 311 311 311 312 312 313 314 314 314 310 308 312 310 306 307 309 310 306 307 307 303 306 307 310 309 304 303 302 302 304 302 304 303 300 298 298 300 297 295 318 317 312 316 317 325
312 312 312 312 311 311 312 312 313 313 313 312 306 312 314 307 307 312 311 312 310 310 307 307 305 308 314 310 309 310 307 309 307 303 309 305 307 304 305 304 315 318 316 318 319 316 325
Wind_Speed
16 16 16 16 15 15 16 16 16 16 18 19 20 20 20 20 21 21 21 20 19 19 19 17 16 13 4 4 13 4 7 6 7 5 9 11 8 14 15 16 26 13 14 13 20 11 8
16 16 16 17 16 17 18 18 17 18 19 20 20 21 21 22 21 22 21 21 20 20 19 17 14 11 3 8 10 11 10 8 8 9 10 13 3 12 19 18 20 6 22 25 15 6 13
16 16 17 17 17 18 19 19 19 20 20 21 21 21 21 22 23 23 23 23 23 21 19 16 10 5 6 20 5 7 10 10 8 10 14 12 6 9 21 13 24 18 24 27 12 13 7
16 17 17 17 17 18 19 20 20 20 21 21 22 22 22 22 23 24 25 25 25 23 19 12 7 5 10 8 12 20 15 9 12 11 15 7 8 6 14 7 6 3 3 7 10 9 8
17 17 17 18 19 19 20 20 20 21 21 22 22 23 23 22 22 24 26 29 29 21 12 5 3 4 12 10 6 10 9 10 11 13 11 11 2 7 9 8 7 8 5 4 7 9 5
17 17 18 18 19 19 19 19 20 21 21 22 22 23 23 23 23 23 28 31 14 7 7 8 8 5 9 13 8 12 11 10 10 8 9 11 4 6 3 5 5 6 6 7 6 2 4
17 18 19 19 19 19 19 20 20 21 21 22 23 24 25 24 23 20 16 9 2 1 6 11 10 9 18 9 13 9 10 9 13 8 8 10 5 5 8 7 10 2 2 6 15 8 4
15 16 17 19 20 20 20 20 21 21 22 22 23 25 25 26 26 20 8 5 10 8 8 18 21 19 24 21 19 18 10 10 13 10 10 4 4 9 18 16 11 5 7 13 17 16 11
14 15 15 16 20 21 21 21 21 21 22 23 23 24 24 27 31 8 8 13 10 17 6 15 19 19 15 11 20 10 10 12 12 11 11 9 4 10 14 15 4 6 11 16 15 16 18
15 16 16 16 17 21 21 22 22 22 22 23 23 23 23 29 5 7 7 12 16 15 5 11 10 15 18 17 13 10 12 10 10 12 13 8 16 11 5 7 16 4 9 25 21 15 15
16 17 18 18 17 20 22 23 23 23 23 23 22 22 21 12 11 6 10 18 13 4 5 8 12 7 11 22 5 11 11 12 15 13 4 4 1 9 14 5 5 7 15 24 20 16 6
17 17 17 19 20 19 22 23 24 25 23 23 22 20 20 7 6 13 16 17 7 1 10 4 9 10 18 18 17 16 11 10 10 14 13 1 4 5 9 19 13 13 6 15 17 7 6
17 17 17 18 20 20 20 23 25 23 24 25 25 21 12 7 8 3 13 4 1 6 9 8 8 10 16 16 17 18 13 12 10 7 13 6 4 15 20 12 12 16 9 8 4 4 2
17 17 17 18 18 20 21 22 23 25 27 27 28 31 10 13 10 12 4 2 7 11 14 6 6 11 12 13 18 17 15 14 13 13 6 13 2 11 15 8 6 7 8 6 4 1 6
19 20 20 20 20 21 22 23 24 26 28 29 31 5 5 8 15 4 1 5 8 7 10 13 14 13 9 12 9 18 19 14 14 16 13 7 10 14 4 5 8 3 7 3 9 5 5
18 19 19 20 20 21 22 23 25 27 31 29 6 5 8 12 16 6 3 7 11 10 17 20 18 5 4 15 14 13 16 17 16 18 15 16 7 7 4 7 4 3 5 4 2 6 3
21 20 20 20 21 22 23 24 24 27 31 32 3 4 5 14 10 2 6 8 11 16 18 8 18 8 10 10 10 16 15 19 17 15 19 17 11 2 3 3 4 8 5 3 4 10 8
18 18 19 23 22 22 23 23 24 24 29 10 6 4 12 14 4 5 9 11 10 20 22 20 11 8 10 13 9 7 17 18 17 19 17 16 9 5 4 5 2 6 7 10 6 6 6
18 18 19 20 21 22 24 24 23 22 17 7 6 5 5 9 5 8 10 19 21 20 21 20 14 6 9 10 8 7 10 9 16 8 15 13 11 5 6 9 7 6 13 13 7 2 9
17 18 19 20 21 22 23 24 25 24 18 5 4 5 4 4 7 11 13 14 18 21 22 23 14 4 8 8 12 7 11 7 9 5 7 2 4 7 7 11 7 14 27 22 9 6 6
17 17 18 19 20 22 23 25 26 29 30 3 4 3 6 4 6 13 14 15 18 18 17 18 3 7 9 8 8 8 10 11 4 1 2 2 1 1 4 13 25 17 10 23 21 13 6
18 18 18 19 20 20 22 24 26 29 36 3 5 6 6 11 13 14 12 17 17 20 16 7 9 9 11 8 7 8 9 8 6 1 2 3 2 4 6 6 6 25 27 26 18 19 7
18 19 19 19 19 21 22 21 22 23 21 5 6 7 5 8 11 10 10 14 15 12 16 15 8 12 12 11 7 8 8 10 7 4 5 7 5 2 5 5 7 8 9 4 4 4 4
17 18 19 20 21 21 21 22 22 18 12 5 5 6 5 7 9 13 22 21 21 10 5 10 13 4 6 8 8 8 11 9 8 10 3 6 6 5 5 3 6 8 7 5 2 4 7
16 17 19 20 20 20 21 21 20 17 14 7 6 5 5 9 11 17 19 21 20 14 13 8 13 7 8 7 4 5 6 6 7 9 11 3 4 2 6 4 6 4 4 4 5 4 8
16 16 19 19 20 19 20 20 19 18 16 8 9 6 7 6 3 15 19 17 11 8 10 9 9 9 7 4 3 2 4 4 5 6 7 8 2 5 1 4 6 9 6 10 8 4 8
15 15 17 18 19 19 19 18 18 17 14 7 7 9 5 8 11 10 7 10 11 10 6 8 13 7 3 0 2 3 8 9 9 8 9 4 4 4 3 4 2 6 8 6 4 5 7
15 15 16 17 18 19 19 18 18 17 14 7 9 10 5 7 16 17 12 11 12 8 5 11 10 7 1 4 4 5 5 7 7 13 9 10 4 5 3 4 2 3 9 7 3 7 12
16 16 16 16 18 19 19 18 17 16 14 10 5 9 9 5 11 20 24 22 21 21 9 5 5 6 4 5 5 4 3 4 6 7 4 2 4 8 8 7 6 10 10 7 7 3 8
Wind_Direction
12 10 6 5 3 1 359 355 353 351 349 349 347 345 341 338 334 330 325 322 318 316 315 315 318 324 323 238 251 196 158 156 157 176 239 255 282 97 88 316 295 233 260 284 261 257 141
9 6 4 1 0 358 355 353 351 351 349 347 344 340 337 334 331 326 322 319 315 312 311 310 312 319 233 260 240 144 168 163 217 193 240 247 89 138 121 226 207 312 307 280 288 173 129
6 5 2 360 358 356 352 350 349 347 344 342 340 337 334 330 327 324 321 316 312 307 305 303 299 282 257 243 260 157 190 190 212 228 235 253 199 139 168 228 217 152 254 274 2 354 48
5 3 360 356 354 353 350 349 346 343 341 339 337 333 330 327 325 322 318 311 306 300 297 286 266 246 252 260 250 268 227 218 208 227 237 233 288 313 194 178 193 218 193 50 329 0 6
2 359 357 354 351 350 349 344 342 341 338 335 333 329 327 324 322 321 317 308 299 288 260 249 188 225 263 266 229 242 242 214 219 233 249 243 177 241 287 279 2 19 1 73 354 356 35
3 0 356 353 349 345 343 343 341 337 335 333 330 328 325 322 322 323 319 298 281 312 212 204 259 295 257 246 228 224 241 222 235 214 245 246 232 241 352 73 191 228 65 1 244 162 16
0 360 357 353 350 349 344 341 338 335 333 330 329 326 325 320 319 325 339 337 281 66 249 204 196 232 283 301 248 222 219 203 236 225 224 235 205 106 115 134 170 301 208 262 244 254 165
354 350 350 352 349 347 345 340 337 334 332 330 328 327 322 317 312 314 296 251 255 310 288 223 247 242 255 272 273 235 195 199 226 220 225 304 167 195 139 140 168 147 76 311 310 274 209
350 345 343 339 345 344 341 339 336 335 332 329 327 325 321 316 313 291 214 237 279 302 290 271 249 229 238 251 259 193 192 208 229 217 233 182 241 182 147 161 244 69 80 285 263 280 222
348 345 343 343 344 344 341 337 335 332 329 327 325 324 323 328 317 340 267 268 236 255 291 260 208 231 234 231 262 226 204 202 234 228 234 261 181 166 189 167 151 98 292 259 262 283 198
349 347 347 341 339 341 341 337 334 332 329 324 318 317 320 319 300 276 291 327 329 16 277 231 191 181 184 210 216 231 245 199 229 240 195 217 23 5 335 211 93 166 226 245 262 270 333
351 347 345 346 341 338 341 339 335 332 322 317 312 312 324 315 200 249 295 296 312 269 245 263 149 185 180 210 222 238 218 217 208 249 257 132 153 160 230 266 127 73 347 273 260 260 273
348 346 345 345 340 337 336 338 334 324 320 318 312 304 291 294 237 19 330 305 214 230 301 202 168 165 185 195 213 224 222 211 197 208 252 107 149 280 249 236 154 118 210 265 302 338 235
343 341 340 339 339 334 334 335 331 327 322 318 313 304 244 207 224 262 279 307 225 247 238 292 202 177 200 191 205 221 233 215 195 223 226 240 173 222 234 187 202 198 232 190 89 225 274
347 345 343 341 341 338 336 333 331 329 326 324 314 259 215 222 209 237 240 224 215 217 266 337 336 173 194 203 222 202 233 225 204 203 227 228 254 186 166 354 132 245 277 232 101 0 27
348 344 341 340 340 337 336 336 335 333 330 329 307 275 248 199 152 179 197 248 250 270 299 325 312 307 250 193 200 209 213 239 206 200 212 252 271 347 61 19 353 152 244 11 49 119 170
350 347 345 344 342 341 339 338 338 336 334 323 251 259 230 148 143 183 221 234 262 269 273 267 294 310 313 318 255 209 210 225 233 206 202 221 233 312 14 105 152 332 331 287 140 139 150
344 346 346 348 345 342 340 341 341 343 338 354 308 270 128 144 151 187 234 239 257 277 291 293 272 292 293 302 312 328 223 204 206 214 217 204 206 157 197 268 163 174 256 295 144 265 235
345 344 344 343 343 343 341 341 342 347 358 325 303 283 225 170 213 229 236 240 255 262 268 274 276 225 268 293 318 326 324 304 219 188 222 214 213 121 16 354 335 298 278 257 226 183 262
342 344 345 342 342 342 342 342 342 340 343 305 276 284 233 194 241 257 263 256 243 243 257 271 286 265 299 275 283 280 304 307 60 42 86 33 157 162 177 195 168 223 248 263 209 225 244
339 341 343 342 343 343 344 343 344 341 338 204 233 340 26 324 314 305 262 275 279 277 246 246 316 296 284 289 289 293 296 305 343 198 83 170 117 84 247 171 198 228 270 267 244 227 193
340 340 342 342 341 344 347 345 349 349 337 227 349 358 337 294 286 303 294 233 256 274 282 246 184 239 268 264 265 282 301 304 269 144 141 357 287 7 326 323 324 190 207 242 245 231 236
342 342 342 342 342 346 348 348 352 358 348 345 347 323 297 296 306 307 292 315 290 276 279 283 249 202 231 257 283 298 313 306 294 304 233 159 147 146 255 304 316 298 249 291 291 64 86
341 342 343 348 347 348 347 349 353 356 12 325 295 306 300 293 313 307 321 317 311 328 320 331 321 308 205 60 24 348 319 301 309 308 310 186 164 140 203 217 234 245 281 283 19 101 128
340 341 342 345 347 348 347 347 347 346 345 325 283 298 315 305 313 308 340 330 326 349 335 320 318 348 1 53 43 346 318 337 305 294 297 322 183 198 153 209 239 258 319 61 150 75 58
334 340 341 342 344 344 344 344 344 344 343 321 291 259 310 299 271 342 314 303 300 328 326 293 316 322 354 27 46 239 256 312 286 291 273 294 249 134 14 168 240 244 117 59 42 50 8
327 331 333 335 338 339 339 339 340 341 340 330 279 303 289 285 269 331 294 316 312 327 299 307 336 317 208 32 322 270 257 222 254 264 272 282 280 207 249 196 204 329 16 65 108 226 62
323 322 324 328 333 333 335 333 333 334 339 341 287 279 307 289 283 264 288 312 316 289 294 333 328 1 68 155 190 247 260 256 233 236 224 232 209 226 193 152 156 358 42 78 176 26 95
316 318 318 321 328 329 328 328 328 330 332 335 280 355 331 261 272 302 285 269 251 256 298 318 286 302 331 27 14 329 301 330 269 257 224 66 235 186 139 170 152 90 112 89 96 70 115